Location: Unspecified
(52.0000°N, 4.4000°E)
Time: 01:05:33
(UTC+00:00)

Cosmos 2221 - Pass Details

Date: 14 May 2025
Orbit: 573 x 592 km, 82.5° (Epoch: 23 June)

Event Time Altitude Azimuth Distance (km) Brightness Sun altitude
Exits shadow 21:09:44 14° 112° (ESE) 1,667 4.3 -12.1°
Maximum altitude 21:11:24 17° 85° (E) 1,503 4.3 -12.2°
Drops below altitude 10° 21:14:07 10° 44° (NE) 1,903 5.2 -12.5°
Sets 21:16:55 0° 24° (NNE) 2,804 6.4 -12.7°
